[[{"header":{"parameterUnit":"m.s-1","parameterCategory":1,"la1":30.2991,"la2":30.254,"lo1":-89.0895,"lo2":-89.0444,"dy":0.0017,"dx":0.0017,"nx":28,"ny":28,"refTime":"2025-06-05T09:00:00:Z","depth":0,"parameterNumber":2,"parameterNumberName":"U-component_of_WINDS"},"data":[0,0,0,0,0,0,0,0,0,0,0,0,0,0,0,0,0,0,0,0,0,0,0,0,0,0,0,0,0,0,0,0,0,0,0,0,0,0,0,0,0,0,0,0,0,0,0,0,0,0,0,0,0,0,0,0,0,0,-0.7903,-0.7904,0,-0.7998,-0.7999,-0.8,-0.8058,-0.8058,-0.8058,-0.8059,-0.8154,-0.8156,-0.8159,0,0,0,0,0,0,0,0,0,0,0,0,0,-0.7772,-0.7774,-0.7903,-0.7904,-0.7906,-0.7998,-0.7999,-0.8,-0.8058,-0.8058,-0.8059,-0.8059,-0.8153,-0.8156,-0.8159,0,0,0,0,0,0,0,0,0,0,0,0,0,-0.7844,-0.7775,-0.7903,-0.7945,-0.795,-0.7998,-0.7999,-0.8001,-0.8058,-0.8058,-0.8059,-0.8059,-0.8153,-0.8156,-0.8159,-0.8171,0,0,-0.817,-0.8171,0,0,0,0,0,0,0,0,-0.784,-0.7849,-0.7938,-0.7943,-0.7948,-0.8017,-0.7988,-0.8058,-0.8058,-0.8017,-0.8059,-0.8059,-0.8108,-0.8115,-0.8132,-0.8176,-0.818,-0.817,-0.8172,-0.8173,-0.8174,0,0,0,0,0,0,0,-0.7835,-0.7845,-0.7941,-0.7939,-0.7945,-0.796,-0.797,-0.8001,-0.8059,-0.802,-0.8025,-0.8035,-0.8111,-0.8128,-0.8134,-0.8181,-0.817,-0.8173,-0.8175,-0.8176,-0.8241,-0.8241,0,0,0,0,0,0,-0.7823,-0.784,-0.7938,-0.7944,-0.7894,-0.7962,-0.7974,-0.7994,-0.8059,-0.8069,-0.8035,-0.8038,-0.8122,-0.813,-0.8138,-0.8157,-0.8173,-0.8177,-0.8179,-0.8241,-0.8241,-0.8241,0,0,0,0,0,0,-0.782,-0.7831,-0.7934,-0.7893,-0.7907,-0.7963,-0.7986,-0.7996,-0.8013,-0.807,-0.808,-0.8042,-0.8123,-0.8133,-0.8163,-0.8161,-0.8178,-0.8181,-0.8242,-0.8241,-0.8241,-0.8194,0,0,0,0,0,0,-0.7816,-0.783,-0.7835,-0.7893,-0.7909,-0.7957,-0.7986,-0.7997,-0.8019,-0.8024,-0.8079,-0.8089,-0.8124,-0.8158,-0.8166,-0.8166,-0.8184,-0.8242,-0.8242,-0.8241,-0.8196,-0.8192,-0.8189,0,0,0,0,0,-0.7811,-0.7818,-0.7835,-0.7846,-0.7917,-0.7957,-0.7966,-0.8007,-0.8019,-0.8025,-0.8061,-0.8087,-0.816,-0.816,-0.8171,-0.8171,-0.8242,-0.8242,-0.8241,-0.8198,-0.8193,-0.8189,0,0,0,0,0,0,-0.7757,-0.7826,-0.7846,-0.7871,-0.7908,-0.7967,-0.7975,-0.8001,-0.8034,-0.8037,-0.8086,-0.8098,-0.8123,-0.815,-0.8149,-0.8187,-0.8204,-0.8206,-0.8168,-0.8164,-0.816,-0.8153,-0.8187,0,0,0,0,0,-0.7748,-0.7775,-0.7834,-0.7851,-0.7868,-0.7918,-0.7937,-0.7966,-0.8005,-0.8021,-0.8059,-0.8096,-0.8128,-0.8148,-0.8179,-0.8201,-0.8214,-0.8206,-0.8203,-0.8199,-0.82,-0.8213,-0.8211,-0.8238,-0.8238,-0.8238,0,0,-0.773,-0.7771,-0.7785,-0.7841,-0.7873,-0.7899,-0.7931,-0.7958,-0.7978,-0.8025,-0.8055,-0.8085,-0.813,-0.8155,-0.8169,-0.8179,-0.8195,-0.8198,-0.8195,-0.8198,-0.8212,-0.821,-0.8207,-0.8238,-0.8238,-0.8238,0,0,-0.7711,-0.7744,-0.7762,-0.7794,-0.7842,-0.7875,-0.7879,-0.7935,-0.7956,-0.7988,-0.8024,-0.8049,-0.8102,-0.8132,-0.8155,-0.8148,-0.8173,-0.8157,-0.8137,-0.815,-0.8148,-0.8146,-0.8144,-0.8142,-0.8157,-0.8157,-0.8157,0,-0.7682,-0.7724,-0.7768,-0.7793,-0.7817,-0.7862,-0.788,-0.7908,-0.7964,-0.7979,-0.799,-0.8058,-0.8091,-0.8125,-0.8123,-0.814,-0.8147,-0.8151,-0.8145,-0.8144,-0.8143,-0.8141,-0.814,-0.8155,-0.8155,-0.8155,-0.8156,0,-0.7686,-0.7714,-0.7723,-0.7776,-0.7801,-0.7823,-0.787,-0.789,-0.7917,-0.7949,-0.7981,-0.8023,-0.8064,-0.8074,-0.81,-0.8112,-0.8117,-0.8136,-0.8154,-0.8137,-0.8136,-0.8136,-0.8152,-0.8152,-0.8153,-0.8154,0,0,-0.7634,-0.7712,-0.7715,-0.774,-0.7796,-0.7819,-0.7843,-0.7884,-0.79,-0.7937,-0.7958,-0.8003,-0.8021,-0.8046,-0.8076,-0.8088,-0.808,-0.8105,-0.8107,-0.8099,-0.8095,-0.808,-0.8078,-0.8097,-0.8098,-0.8098,-0.8091,0,-0.7622,-0.7667,-0.7709,-0.7739,-0.7766,-0.7809,-0.783,-0.7867,-0.7898,-0.7926,-0.796,-0.7991,-0.8012,-0.8028,-0.8041,-0.8078,-0.808,-0.8079,-0.8117,-0.8118,-0.8104,-0.8078,-0.8062,-0.8054,-0.8091,-0.8091,-0.8091,0,-0.7615,-0.7651,-0.7683,-0.7738,-0.7751,-0.7769,-0.781,-0.7836,-0.7879,-0.7901,-0.793,-0.7962,-0.7989,-0.8005,-0.8044,-0.8042,-0.8061,-0.8081,-0.8082,-0.8086,-0.8103,-0.8081,-0.8053,-0.8051,-0.8091,-0.8091,-0.8091,0,-0.7573,-0.763,-0.7657,-0.7677,-0.7741,-0.7753,-0.778,-0.7824,-0.7846,-0.7883,-0.7898,-0.7936,-0.7957,-0.7987,-0.8028,-0.8036,-0.8062,-0.8082,-0.8081,-0.8079,-0.8083,-0.8082,-0.8056,-0.8096,-0.8096,-0.8096,-0.8096,0,-0.7555,-0.7574,-0.7639,-0.7655,-0.7677,-0.7725,-0.7745,-0.7777,-0.7815,-0.7839,-0.7879,-0.79,-0.7954,-0.7981,-0.8014,-0.8041,-0.805,-0.8068,-0.8077,-0.8064,-0.8062,-0.8076,-0.8078,-0.8096,-0.8096,-0.8096,-0.8096,0,-0.7512,-0.7557,-0.7589,-0.7648,-0.7663,-0.7677,-0.7727,-0.7745,-0.7779,-0.7808,-0.7818,-0.7871,-0.7905,-0.795,-0.7998,-0.8021,-0.8043,-0.8057,-0.8029,-0.8033,-0.803,-0.8029,-0.8012,-0.8012,-0.8051,-0.8051,-0.805,0,-0.7498,-0.7513,-0.7574,-0.7592,-0.7619,-0.7648,-0.7672,-0.7719,-0.7742,-0.7793,-0.7804,-0.7842,-0.7875,-0.7928,-0.7971,-0.8008,-0.8023,-0.8014,-0.8028,-0.8016,-0.8022,-0.802,-0.8022,-0.801,-0.8009,-0.8009,-0.8008,0,-0.7467,-0.7489,-0.7521,-0.7561,-0.7587,-0.7621,-0.7657,-0.767,-0.7725,-0.7748,-0.7784,-0.781,-0.786,-0.7897,-0.794,-0.7969,-0.7997,-0.8004,-0.8005,-0.7992,-0.7975,-0.7984,-0.8018,-0.8003,-0.8004,-0.8004,-0.8005,-0.8005,-0.7438,-0.7453,-0.7499,-0.7533,-0.7565,-0.7597,-0.7617,-0.7654,-0.7685,-0.773,-0.7756,-0.7791,-0.7835,-0.7896,-0.7924,-0.7952,-0.7963,-0.7965,-0.7966,-0.7965,-0.7961,-0.7972,-0.796,-0.796,-0.796,-0.7961,-0.7961,0,-0.7409,-0.744,-0.7472,-0.752,-0.7548,-0.7573,-0.7614,-0.7635,-0.7666,-0.7704,-0.7736,-0.7778,-0.7814,-0.786,-0.79,-0.7914,-0.7928,-0.7922,-0.7921,-0.7928,-0.7949,-0.7944,-0.791,-0.791,-0.791,-0.791,-0.791,-0.791,-0.7397,-0.7425,-0.7452,-0.7496,-0.7528,-0.7563,-0.7584,-0.7614,-0.7645,-0.769,-0.7721,-0.7751,-0.7792,-0.7836,-0.787,-0.7883,-0.7895,-0.7886,-0.7902,-0.7922,-0.7926,-0.793,-0.7925,-0.7888,-0.7888,-0.7878,-0.7878,-0.7878]},{"header":{"parameterUnit":"m.s-1","parameterCategory":1,"la1":30.2991,"la2":30.254,"lo1":-89.0895,"lo2":-89.0444,"dy":0.0017,"dx":0.0017,"nx":28,"ny":28,"refTime":"2025-06-05T09:00:00:Z","depth":0,"parameterNumber":3,"parameterNumberName":"V-component_of_WINDS"},"data":[0,0,0,0,0,0,0,0,0,0,0,0,0,0,0,0,0,0,0,0,0,0,0,0,0,0,0,0,0,0,0,0,0,0,0,0,0,0,0,0,0,0,0,0,0,0,0,0,0,0,0,0,0,0,0,0,0,0,0.4293,0.4292,0,0.4249,0.4248,0.4248,0.4187,0.4186,0.4185,0.4184,0.414,0.414,0.414,0,0,0,0,0,0,0,0,0,0,0,0,0,0.4323,0.4323,0.4293,0.4292,0.4292,0.4249,0.4248,0.4248,0.4187,0.4186,0.4185,0.4183,0.414,0.414,0.4139,0,0,0,0,0,0,0,0,0,0,0,0,0,0.4298,0.4323,0.4293,0.4256,0.4252,0.4249,0.4248,0.4248,0.4187,0.4186,0.4184,0.4183,0.414,0.414,0.4139,0.4169,0,0,0.4139,0.4138,0,0,0,0,0,0,0,0,0.4299,0.4297,0.4262,0.4259,0.4254,0.4222,0.4243,0.4221,0.4188,0.4212,0.4184,0.4182,0.4168,0.4166,0.4161,0.4167,0.4165,0.4138,0.4138,0.4138,0.4138,0,0,0,0,0,0,0,0.4301,0.4298,0.4275,0.4262,0.4257,0.4242,0.4236,0.4239,0.42,0.421,0.4205,0.4201,0.4166,0.4161,0.4159,0.4164,0.4139,0.4138,0.4138,0.4138,0.419,0.4192,0,0,0,0,0,0,0.4308,0.43,0.4277,0.4274,0.4274,0.4243,0.4237,0.4234,0.4199,0.4193,0.4202,0.4198,0.4163,0.416,0.4158,0.4189,0.4138,0.4138,0.4138,0.4189,0.4191,0.4193,0,0,0,0,0,0,0.4309,0.4307,0.4278,0.4286,0.4281,0.4244,0.4241,0.4234,0.4229,0.4194,0.4186,0.4205,0.4161,0.4158,0.4166,0.4187,0.4138,0.4137,0.4187,0.4189,0.4192,0.4253,0,0,0,0,0,0,0.431,0.4308,0.4318,0.4287,0.4281,0.4288,0.4242,0.4234,0.4229,0.4223,0.4194,0.4188,0.416,0.4167,0.4166,0.4185,0.4137,0.4185,0.4188,0.4191,0.4249,0.4257,0.4264,0,0,0,0,0,0.4312,0.4338,0.4319,0.4317,0.4294,0.4289,0.4286,0.4253,0.4231,0.4241,0.4218,0.4189,0.4185,0.4168,0.4167,0.4186,0.4184,0.4187,0.4191,0.4245,0.4255,0.4264,0,0,0,0,0,0,0.4374,0.4333,0.4312,0.4329,0.4313,0.4279,0.4291,0.4265,0.4256,0.4251,0.421,0.4204,0.4217,0.4202,0.4185,0.4212,0.418,0.4183,0.4222,0.4231,0.4238,0.4242,0.4137,0,0,0,0,0,0.4389,0.4389,0.4353,0.4371,0.4364,0.4329,0.4326,0.4302,0.4284,0.4277,0.4255,0.4239,0.4234,0.4231,0.4225,0.4246,0.4239,0.4259,0.4266,0.4273,0.4276,0.4285,0.4294,0.4204,0.4204,0.4204,0,0,0.4421,0.4399,0.4401,0.4383,0.4368,0.4368,0.4324,0.4327,0.4327,0.4278,0.4284,0.4267,0.4246,0.4261,0.4266,0.4249,0.4299,0.4277,0.4283,0.4283,0.429,0.4299,0.4306,0.4207,0.4206,0.4206,0,0,0.448,0.4463,0.4476,0.4462,0.4439,0.4415,0.4419,0.4389,0.4375,0.4381,0.4344,0.4343,0.4335,0.4322,0.4314,0.4366,0.4339,0.4365,0.4405,0.4415,0.4422,0.4428,0.4446,0.4453,0.4369,0.4369,0.4369,0,0.4523,0.4522,0.4486,0.4491,0.4483,0.4439,0.4451,0.4439,0.4416,0.4412,0.4393,0.4381,0.4364,0.4375,0.4387,0.4383,0.4385,0.4369,0.4424,0.4429,0.4435,0.4452,0.4459,0.4372,0.4372,0.4372,0.4371,0,0.4576,0.4576,0.4589,0.4567,0.4561,0.457,0.4535,0.4533,0.4509,0.4488,0.4493,0.4471,0.4459,0.4459,0.4437,0.4466,0.4456,0.4431,0.4397,0.4447,0.4462,0.4469,0.4377,0.4376,0.4375,0.4374,0,0,0.4673,0.4631,0.4636,0.4625,0.4597,0.4596,0.4602,0.459,0.4589,0.4574,0.4578,0.4572,0.4548,0.4539,0.4514,0.4523,0.4565,0.4496,0.4495,0.451,0.4596,0.4616,0.4624,0.4546,0.4548,0.4548,0.4598,0,0.4727,0.4735,0.4702,0.4719,0.4718,0.4675,0.468,0.4663,0.4643,0.4639,0.4616,0.4613,0.4582,0.4576,0.4582,0.4559,0.4582,0.4555,0.455,0.455,0.4557,0.4632,0.4652,0.47,0.4604,0.4605,0.4605,0,0.479,0.4778,0.4795,0.4765,0.4763,0.4769,0.4754,0.4751,0.4731,0.4715,0.4705,0.4676,0.4679,0.4647,0.4651,0.4633,0.4629,0.4617,0.4618,0.4616,0.4581,0.4632,0.4715,0.4722,0.4614,0.4614,0.4613,0,0.486,0.4848,0.4856,0.4848,0.4813,0.4818,0.4803,0.4781,0.4775,0.4763,0.4759,0.4747,0.474,0.4731,0.4699,0.4679,0.4707,0.4672,0.4694,0.4695,0.4703,0.4703,0.4786,0.47,0.47,0.47,0.47,0,0.4923,0.4935,0.4886,0.4892,0.4903,0.4865,0.4878,0.4859,0.484,0.484,0.4802,0.4803,0.4761,0.4757,0.4732,0.4739,0.4736,0.4724,0.4717,0.4727,0.4729,0.4724,0.472,0.4701,0.4701,0.4701,0.47,0,0.5003,0.4971,0.4977,0.4943,0.4934,0.4945,0.4915,0.4918,0.4895,0.4896,0.4894,0.4858,0.4852,0.4819,0.4805,0.4788,0.4803,0.479,0.4811,0.4806,0.483,0.4828,0.4913,0.4922,0.4831,0.4832,0.4833,0,0.5045,0.5053,0.502,0.5017,0.5005,0.5001,0.4995,0.4957,0.4952,0.4929,0.4935,0.4925,0.4916,0.4907,0.488,0.4868,0.4854,0.4885,0.4853,0.4862,0.4855,0.4855,0.4855,0.4892,0.4893,0.4894,0.4895,0,0.5124,0.5108,0.5101,0.5087,0.5081,0.5069,0.5055,0.5055,0.5013,0.5009,0.5002,0.4994,0.498,0.4971,0.4954,0.4939,0.491,0.4905,0.491,0.492,0.4932,0.4926,0.483,0.4904,0.4903,0.4902,0.4902,0.4901,0.5187,0.5192,0.5169,0.5161,0.5146,0.5134,0.5135,0.5111,0.5105,0.509,0.5067,0.5063,0.5041,0.5017,0.5003,0.4999,0.4983,0.4989,0.4991,0.4993,0.4999,0.4932,0.4996,0.4996,0.4996,0.4995,0.4995,0,0.5264,0.5247,0.524,0.5221,0.5215,0.5188,0.517,0.5167,0.5164,0.5146,0.5137,0.5128,0.5119,0.509,0.5077,0.5079,0.5066,0.5077,0.5077,0.5074,0.5014,0.5011,0.5089,0.5089,0.5089,0.5089,0.5089,0.5089,0.5303,0.531,0.5291,0.5289,0.5271,0.5267,0.5259,0.5247,0.5232,0.5224,0.5216,0.5197,0.5174,0.516,0.515,0.5141,0.5138,0.5155,0.5142,0.5087,0.5078,0.507,0.5067,0.5154,0.5154,0.5202,0.5202,0.5203]}]]